This demonstration page uses our WeatherBlox Daily Observations layout. Learn more.

Left ArrowRight Arrow

Hourly Observations for March 7, 2016

Temp ( °F °C ) Dew Point ( °F °C ) Humidity (%) Winds ( mph kmh ) Pressure ( in mb ) Visibility ( mi km ) Precip ( " mm )
12:53 am 00:53 Clear 45 7.2 36 2.2 71 71 VRB 5 7 30.09 1019 10 16 N/A
1:53 am 01:53 Clear 43 6.1 35 1.7 74 74 N N/A 30.09 1019 10 16 N/A
2:53 am 02:53 Clear 41 5 35 1.7 79 79 ESE 5 7 30.09 1019 10 16 N/A
3:53 am 03:53 Clear 43 6.1 35 1.7 74 74 ESE 3 6 30.09 1019 10 16 N/A
4:53 am 04:53 Clear 43 6.1 36 2.2 76 76 VRB 3 6 30.09 1019 10 16 N/A
5:53 am 05:53 Clear 43 6.1 34 1.1 71 71 ESE 5 7 30.11 1020 10 16 N/A
6:53 am 06:53 Clear 44 6.7 34 1.1 68 68 SE 5 7 30.12 1020 10 16 N/A
7:53 am 07:53 Sunny 45 7.2 35 1.7 68 68 ESE 3 6 30.12 1020 10 16 N/A
8:53 am 08:53 Mostly Sunny 48 8.9 36 2.2 63 63 SE 5 7 30.14 1021 10 16 N/A
9:53 am 09:53 Sunny 54 12.2 36 2.2 51 51 VRB 5 7 30.12 1020 10 16 N/A
10:53 am 10:53 Sunny 62 16.7 34 1.1 35 35 SSW 10 17 30.12 1020 10 16 N/A
11:53 am 11:53 Sunny 62 16.7 34 1.1 35 35 SSW 10 17 30.11 1020 10 16 N/A
12:53 pm 12:53 Mostly Sunny 63 17.2 35 1.7 35 35 SW 9 15 30.11 1020 10 16 N/A
1:53 pm 13:53 Mostly Sunny 64 17.8 34 1.1 33 33 SSW 13 20 30.09 1019 10 16 N/A
2:53 pm 14:53 Partly Cloudy 63 17.2 34 1.1 34 34 S 9 15 30.07 1018 10 16 N/A
3:53 pm 15:53 Mostly Cloudy 63 17.2 35 1.7 35 35 S 7 11 30.06 1018 10 16 N/A
4:53 pm 16:53 Sunny 63 17.2 36 2.2 37 37 VRB 5 7 30.03 1017 10 16 N/A
5:53 pm 17:53 Sunny 64 17.8 35 1.7 34 34 S 8 13 30.04 1017 10 16 N/A
6:53 pm 18:53 Clear 61 16.1 35 1.7 38 38 S 3 6 30.05 1018 10 16 N/A
7:53 pm 19:53 Clear 57 13.9 37 2.8 47 47 N N/A 30.06 1018 10 16 N/A
8:53 pm 20:53 Clear 59 15 37 2.8 44 44 SSE 5 7 30.06 1018 10 16 N/A
9:53 pm 21:53 Clear 56 13.3 38 3.3 51 51 N N/A 30.06 1018 10 16 N/A
10:53 pm 22:53 Clear 48 8.9 40 4.4 74 74 N N/A 30.06 1018 10 16 N/A
11:53 pm 23:53 Clear 48 8.9 40 4.4 74 74 S 3 6 30.06 1018 10 16 N/A

Powered by AerisWeather